Change the Weather History Date:

Tuesday, February 25, 2014

  Actual Average Record
Temperature  
Mean Temperature 26 °F -  
Max Temperature 30 °F 39 °F 52 °F (1984)
Min Temperature 21 °F 26 °F 12 °F (1993)
Degree Days  
Heating Degree Days 40    
Moisture  
Dew Point 7 °F    
Average Humidity 47    
Maximum Humidity 57    
Minimum Humidity 36    
Precipitation  
Precipitation 0.00 in - - ()
Sea Level Pressure  
Sea Level Pressure 29.95 in    
Wind  
Wind Speed 8 mph (West)    
Max Wind Speed 14 mph    
Max Gust Speed 25 mph    
Visibility 10 miles    
Events      
Averages and records for this station are not official NWS values.
T = Trace of Precipitation, MM = Missing Value Source: NWS Daily Summary

Daily Weather History Graph

Daily Weather History Graph

Search for Another Location

Airport or City:

Trip Planner

Search our weather history database for the weather conditions in past years. The results will help you decide how hot, cold, wet, or windy it might be!

Date:

Astronomy

Feb. 25, 2014 Rise Set
Actual Time 6:20 AM EST 5:25 PM EST
Civil Twilight 5:52 AM EST 5:53 PM EST
Nautical Twilight 5:20 AM EST 6:25 PM EST
Astronomical Twilight 4:48 AM EST 6:58 PM EST
Moon 3:15 AM EST (2/25) 1:25 PM EST (2/25)
Length of Visible Light 12h 00m
Length of Day
11h 04m
Waning Crescent, 18% of the Moon is Illuminated
Feb 25
Waning Crescent
Mar 1
New
Mar 8
First Quarter
Mar 16
Full
Mar 23
Last Quarter

Hourly Weather History & Observations

Time (EST) Temp. Windchill Dew Point Humidity Pressure Visibility Wind Dir Wind Speed Gust Speed Precip Events Conditions
12:52 AM 25.0 °F 14.2 °F 7.0 °F 46% 29.96 in 10.0 mi WNW 11.5 mph 25.3 mph N/A   Mostly Cloudy
1:52 AM 25.0 °F 16.3 °F 8.1 °F 49% 29.98 in 10.0 mi WNW 8.1 mph 19.6 mph N/A   Mostly Cloudy
2:52 AM 24.1 °F 16.0 °F 8.1 °F 51% 29.98 in 10.0 mi West 6.9 mph - N/A   Partly Cloudy
3:52 AM 21.9 °F 15.7 °F 8.1 °F 55% 29.98 in 10.0 mi West 4.6 mph - N/A   Clear
4:52 AM 21.0 °F 13.4 °F 8.1 °F 57% 29.99 in 10.0 mi West 5.8 mph - N/A   Clear
5:52 AM 21.0 °F 12.4 °F 7.0 °F 55% 29.99 in 10.0 mi WSW 6.9 mph - N/A   Clear
6:52 AM 21.9 °F 14.5 °F 8.1 °F 55% 29.99 in 10.0 mi West 5.8 mph - N/A   Clear
7:52 AM 24.1 °F 13.1 °F 7.0 °F 48% 30.01 in 10.0 mi West 11.5 mph 19.6 mph N/A   Clear
8:52 AM 25.0 °F 14.8 °F 6.1 °F 45% 30.00 in 10.0 mi WNW 10.4 mph 16.1 mph N/A   Clear
9:52 AM 27.0 °F 17.3 °F 5.0 °F 39% 29.99 in 10.0 mi WNW 10.4 mph 19.6 mph N/A   Clear
10:52 AM 26.1 °F 16.2 °F 3.9 °F 39% 29.97 in 10.0 mi West 10.4 mph 20.7 mph N/A   Scattered Clouds
11:52 AM 28.0 °F 17.5 °F 9.0 °F 45% 29.95 in 10.0 mi WSW 12.7 mph 23.0 mph N/A   Partly Cloudy
12:52 PM 30.0 °F 22.4 °F 6.1 °F 36% 29.92 in 10.0 mi West 8.1 mph 23.0 mph N/A   Mostly Cloudy
1:52 PM 30.0 °F 19.5 °F 7.0 °F 38% 29.89 in 10.0 mi WSW 13.8 mph 25.3 mph N/A   Mostly Cloudy
2:52 PM 30.0 °F 21.7 °F 6.1 °F 36% 29.89 in 10.0 mi WNW 9.2 mph 21.9 mph N/A   Overcast
3:52 PM 30.0 °F 22.4 °F 7.0 °F 38% 29.88 in 10.0 mi WNW 8.1 mph 18.4 mph N/A   Overcast
4:52 PM 28.0 °F 22.8 °F 6.1 °F 39% 29.88 in 10.0 mi West 4.6 mph - N/A   Mostly Cloudy
5:52 PM 27.0 °F 23.0 °F 8.1 °F 45% 29.91 in 10.0 mi WNW 3.5 mph - N/A   Clear
6:52 PM 25.0 °F 19.3 °F 8.1 °F 49% 29.92 in 10.0 mi WNW 4.6 mph - N/A   Clear
7:52 PM 24.1 °F 19.7 °F 10.0 °F 55% 29.94 in 10.0 mi West 3.5 mph - N/A   Clear
8:52 PM 25.0 °F 18.1 °F 9.0 °F 51% 29.94 in 10.0 mi West 5.8 mph - N/A   Clear
9:52 PM 23.0 °F 18.4 °F 9.0 °F 55% 29.96 in 10.0 mi West 3.5 mph - N/A   Clear
10:52 PM 24.1 °F 16.0 °F 8.1 °F 51% 29.96 in 10.0 mi WNW 6.9 mph - N/A   Clear
11:52 PM 23.0 °F 18.4 °F 7.0 °F 50% 29.96 in 10.0 mi Variable 3.5 mph - N/A   Clear